| time (UTC) | temp F | wind direction | speed MPH | gust MPH | rain 1hr in | rain 24hr in | rain mn in | humidity % | barometer mb |
| 20260505022703 | 54 | 0 | 0.0 | 0.0 | 0.00 | 0.45 | 0.25 | 98 | 1011.1 |
| 20260505022016 | 54 | 0 | 0.0 | 0.0 | 0.00 | 0.45 | 0.25 | 98 | 1011.1 |
| 20260505021113 | 54 | 0 | 0.0 | 0.0 | 0.00 | 0.45 | 0.25 | 98 | 1011.1 |
| 20260505020005 | 54 | 0 | 0.0 | 0.0 | 0.00 | 0.45 | 0.25 | 98 | 1011.1 |
| 20260505015405 | 54 | 0 | 0.0 | 0.0 | 0.00 | 0.45 | 0.25 | 98 | 1011.1 |
| 20260505014503 | 54 | 0 | 0.0 | 0.0 | 0.00 | 0.45 | 0.25 | 98 | 1011.1 |
| 20260505013814 | 54 | 0 | 0.0 | 0.0 | 0.00 | 0.45 | 0.25 | 98 | 1011.1 |
| 20260505012703 | 54 | 0 | 0.0 | 0.0 | 0.04 | 0.45 | 0.25 | 98 | 1011.1 |
| 20260505011803 | 54 | 0 | 0.0 | 0.0 | 0.04 | 0.45 | 0.25 | 98 | 1012.1 |
| 20260505010903 | 54 | 0 | 0.0 | 0.0 | 0.04 | 0.45 | 0.25 | 98 | 1012.1 |
| 20260505010005 | 54 | 0 | 0.0 | 0.0 | 0.04 | 0.45 | 0.25 | 98 | 1012.1 |
| 20260505005405 | 54 | 0 | 0.0 | 0.0 | 0.08 | 0.49 | 0.25 | 98 | 1012.1 |
| 20260505004503 | 54 | 0 | 0.0 | 0.0 | 0.12 | 0.54 | 0.25 | 98 | 1012.1 |
| 20260505003603 | 54 | 0 | 0.0 | 0.0 | 0.25 | 0.58 | 0.25 | 98 | 1012.1 |
| 20260505002705 | 54 | 0 | 0.0 | 0.0 | 0.21 | 0.75 | 0.21 | 98 | 1012.1 |
| 20260505001803 | 54 | 0 | 0.0 | 0.0 | 0.21 | 0.75 | 0.21 | 98 | 1012.1 |
| 20260505000905 | 54 | 0 | 0.0 | 0.0 | 0.21 | 0.75 | 0.21 | 98 | 1012.1 |
| 20260505000003 | 54 | 0 | 0.0 | 0.0 | 0.21 | 0.75 | 0.21 | 98 | 1012.1 |
| 20260504235404 | 54 | 0 | 0.0 | 0.0 | 0.17 | 0.71 | 0.17 | 98 | 1012.1 |
| 20260504234503 | 54 | 0 | 0.0 | 0.0 | 0.13 | 0.67 | 0.13 | 98 | 1012.1 |
| 20260504233603 | 53 | 0 | 0.0 | 0.0 | 0.00 | 0.54 | 0.00 | 98 | 1012.1 |
| 20260504232703 | 53 | 0 | 0.0 | 0.0 | 0.00 | 0.54 | 0.00 | 98 | 1012.1 |
| 20260504232012 | 53 | 0 | 0.0 | 0.0 | 0.00 | 0.54 | 0.00 | 98 | 1012.1 |
| 20260504231114 | 53 | 0 | 0.0 | 0.0 | 0.00 | 0.54 | 0.00 | 98 | 1012.1 |
| 20260504230213 | 53 | 0 | 0.0 | 0.0 | 0.00 | 0.54 | 0.00 | 98 | 1012.1 |
| 20260504225405 | 53 | 0 | 0.0 | 0.0 | 0.00 | 0.54 | 0.00 | 98 | 1012.1 |
| 20260504224714 | 53 | 0 | 0.0 | 0.0 | 0.00 | 0.54 | 0.00 | 98 | 1012.1 |
| 20260504223603 | 53 | 0 | 0.0 | 0.0 | 0.00 | 0.54 | 0.00 | 98 | 1012.1 |
| 20260504222703 | 53 | 0 | 0.0 | 0.0 | 0.00 | 0.54 | 0.00 | 98 | 1012.1 |
| 20260504221806 | 53 | 0 | 0.0 | 0.0 | 0.00 | 0.54 | 0.00 | 98 | 1013.1 |
| 20260504220903 | 52 | 0 | 0.0 | 0.0 | 0.00 | 0.54 | 0.00 | 98 | 1013.1 |
| 20260504220004 | 52 | 0 | 0.0 | 0.0 | 0.00 | 0.54 | 0.00 | 98 | 1013.1 |
| 20260504215614 | 52 | 0 | 0.0 | 0.0 | 0.00 | 0.54 | 0.54 | 98 | 1013.1 |
| 20260504214503 | 53 | 0 | 0.0 | 0.0 | 0.00 | 0.54 | 0.54 | 98 | 1013.1 |
| 20260504213603 | 52 | 0 | 0.0 | 0.0 | 0.00 | 0.54 | 0.54 | 98 | 1013.1 |
| 20260504212703 | 52 | 0 | 0.0 | 0.0 | 0.00 | 0.54 | 0.54 | 98 | 1013.1 |
| 20260504211805 | 52 | 0 | 0.0 | 0.0 | 0.00 | 0.54 | 0.54 | 98 | 1013.1 |
| 20260504211113 | 52 | 0 | 0.0 | 0.0 | 0.00 | 0.54 | 0.54 | 98 | 1013.1 |
| 20260504210005 | 52 | 0 | 0.0 | 0.0 | 0.00 | 0.54 | 0.54 | 98 | 1013.1 |
| 20260504205403 | 52 | 0 | 0.0 | 0.0 | 0.00 | 0.58 | 0.54 | 98 | 1013.1 |
| 20260504204503 | 53 | 0 | 0.0 | 0.0 | 0.00 | 0.58 | 0.54 | 98 | 1013.1 |
| 20260504203815 | 53 | 0 | 0.0 | 0.0 | 0.00 | 0.58 | 0.54 | 98 | 1013.1 |
| 20260504202914 | 53 | 0 | 0.0 | 0.0 | 0.00 | 0.58 | 0.54 | 98 | 1013.1 |
| 20260504201803 | 53 | 0 | 0.0 | 0.0 | 0.00 | 0.58 | 0.54 | 98 | 1013.1 |
| 20260504200905 | 54 | 0 | 0.0 | 0.0 | 0.00 | 0.62 | 0.54 | 98 | 1013.1 |
| 20260504200003 | 54 | 0 | 0.0 | 0.0 | 0.00 | 0.62 | 0.54 | 98 | 1013.1 |
| 20260504195403 | 54 | 0 | 0.0 | 0.0 | 0.00 | 0.62 | 0.54 | 98 | 1012.1 |
| 20260504194503 | 55 | 0 | 0.0 | 0.0 | 0.00 | 0.62 | 0.54 | 98 | 1012.1 |
| 20260504193603 | 55 | 0 | 0.0 | 0.0 | 0.00 | 0.62 | 0.54 | 98 | 1012.1 |
| 20260504192703 | 55 | 0 | 0.0 | 0.0 | 0.00 | 0.62 | 0.54 | 98 | 1012.1 |
| 20260504191803 | 55 | 0 | 0.0 | 0.0 | 0.00 | 0.62 | 0.54 | 98 | 1012.1 |
| 20260504190903 | 56 | 0 | 0.0 | 0.0 | 0.00 | 0.62 | 0.54 | 98 | 1012.1 |
| 20260504190003 | 56 | 0 | 0.0 | 0.0 | 0.00 | 0.62 | 0.54 | 98 | 1012.1 |
| 20260504185403 | 56 | 0 | 0.0 | 0.0 | 0.00 | 0.62 | 0.54 | 98 | 1012.1 |
| 20260504184503 | 56 | 0 | 0.0 | 0.0 | 0.04 | 0.62 | 0.54 | 98 | 1012.1 |
| 20260504183603 | 56 | 0 | 0.0 | 0.0 | 0.04 | 0.62 | 0.54 | 98 | 1012.1 |
| 20260504182703 | 56 | 225 | 0.0 | 2.0 | 0.04 | 0.62 | 0.54 | 98 | 1012.1 |
| 20260504181803 | 56 | 0 | 0.0 | 0.0 | 0.04 | 0.62 | 0.54 | 98 | 1012.1 |
| 20260504180903 | 56 | 225 | 0.0 | 1.0 | 0.04 | 0.62 | 0.54 | 98 | 1012.1 |
| 20260504180003 | 57 | 230 | 1.0 | 4.0 | 0.04 | 0.62 | 0.54 | 98 | 1012.1 |
| 20260504175403 | 57 | 253 | 3.0 | 4.0 | 0.04 | 0.62 | 0.54 | 98 | 1012.1 |
| 20260504174503 | 57 | 0 | 0.0 | 0.0 | 0.00 | 0.58 | 0.50 | 98 | 1012.1 |
| 20260504173603 | 57 | 225 | 0.0 | 4.0 | 0.00 | 0.58 | 0.50 | 98 | 1012.1 |
| 20260504172703 | 58 | 0 | 0.0 | 0.0 | 0.00 | 0.58 | 0.50 | 98 | 1012.1 |
| 20260504171803 | 58 | 0 | 0.0 | 0.0 | 0.00 | 0.58 | 0.50 | 98 | 1012.1 |
| 20260504170903 | 58 | 0 | 0.0 | 0.0 | 0.00 | 0.58 | 0.50 | 98 | 1012.1 |
| 20260504150905 | 57 | 315 | 0.0 | 3.0 | 0.00 | 0.58 | 0.50 | 98 | 1012.1 |
| 20260504140905 | 58 | 272 | 0.0 | 5.0 | 0.00 | 0.58 | 0.50 | 94 | 1012.1 |
| 20260504140214 | 58 | 291 | 1.0 | 5.0 | 0.00 | 0.58 | 0.50 | 93 | 1012.1 |
| 20260504081803 | 60 | 0 | 0.0 | 0.0 | 0.04 | 0.46 | 0.38 | 98 | 1010.1 |
| 20260504080909 | 60 | 0 | 0.0 | 0.0 | 0.04 | 0.46 | 0.38 | 98 | 1010.1 |
| 20260504080213 | 60 | 0 | 0.0 | 0.0 | 0.04 | 0.46 | 0.38 | 98 | 1010.1 |
| 20260504050005 | 58 | 0 | 0.0 | 0.0 | 0.00 | 0.42 | 0.34 | 98 | 1009.1 |
| 20260504045614 | 59 | 0 | 0.0 | 0.0 | 0.00 | 0.42 | 0.34 | 98 | 1009.1 |
| 20260504044504 | 58 | 225 | 0.0 | 2.0 | 0.00 | 0.42 | 0.34 | 98 | 1009.1 |
| 20260504043605 | 58 | 0 | 0.0 | 0.0 | 0.00 | 0.42 | 0.34 | 98 | 1009.1 |
| 20260504042704 | 58 | 225 | 0.0 | 3.0 | 0.00 | 0.42 | 0.34 | 98 | 1009.1 |
| 20260504041803 | 59 | 0 | 0.0 | 0.0 | 0.00 | 0.42 | 0.34 | 98 | 1009.1 |
| 20260504040905 | 59 | 180 | 0.0 | 3.0 | 0.00 | 0.42 | 0.34 | 98 | 1009.1 |
| 20260504040216 | 59 | 180 | 0.0 | 1.0 | 0.00 | 0.42 | 0.34 | 98 | 1009.1 |
| 20260504035403 | 58 | 0 | 0.0 | 0.0 | 0.00 | 0.42 | 0.34 | 98 | 1009.1 |
| 20260504034503 | 58 | 0 | 0.0 | 0.0 | 0.00 | 0.42 | 0.34 | 98 | 1009.1 |
| 20260504033814 | 58 | 180 | 0.0 | 2.0 | 0.00 | 0.42 | 0.34 | 98 | 1009.1 |
| 20260504032703 | 58 | 180 | 0.0 | 3.0 | 0.00 | 0.42 | 0.34 | 98 | 1009.1 |
| 20260504032015 | 58 | 180 | 0.0 | 3.0 | 0.00 | 0.42 | 0.34 | 98 | 1009.1 |
| 20260504030903 | 58 | 0 | 0.0 | 0.0 | 0.00 | 0.42 | 0.34 | 98 | 1010.1 |
| 20260504030005 | 58 | 180 | 0.0 | 4.0 | 0.00 | 0.42 | 0.34 | 98 | 1010.1 |
| 20260504025405 | 58 | 180 | 0.0 | 3.0 | 0.00 | 0.42 | 0.34 | 98 | 1009.1 |
| 20260504024503 | 58 | 180 | 0.0 | 1.0 | 0.00 | 0.42 | 0.34 | 98 | 1009.1 |
| 20260504023603 | 58 | 202 | 0.0 | 1.0 | 0.00 | 0.42 | 0.34 | 98 | 1010.1 |